Timeline UpdatesTrip UpdatesNews PostsPvt PostsTravel TipsAdmin PostsConv PostsFollowed PostsChat RequestsBlog PostsPNR Posts

Disclaimer
Search
 
 
Wed Oct 1, 2014 05:26:34 ISTHomeTrainsΣChainsAtlasPNRForumGalleryNewsFAQTripsMembersLoginFeedback
No Recent News for this Train
Other Trains in the News **new
Latest...
.
Fri Sep 05, 2014 (07:43AM)
⇐ Return Journey: Train# 75719

75402⇒75720/Dinhata - Malda Town Passenger

Time-Table HAS CHANGED.
Sep 05 (7:43AM)
Change Departure Station:
Change Arrival Station:
Post a Train Travel TipPost a Train Travel Tip **new
Post a Comment/Question/Picture/VideoPost a Comment/Question/Picture/Video
Pantry/Catering
✕ NO Pantry Car
✕ NO Catering
RSA - Rake Sharing
Rake/Coach Composition
Loco
News    PNR    Forum    Time-Table    Availability    Fare Chart    Map    Arr/Dep History    Trips    Gallery    ΣChains    X/O    Timeline    
Travel Time: 3h 3m    12 halts    Distance: 65 km    Avg Speed: 21 km/hr
Type: DEMU
Zone: NFR/Northeast Frontier
Departs @ 14:22
Platform# ???
SMTWTFS
Babhabgaon Halt/BAHN 
Arrives @ 17:25 (Avg 1h 10m late)
Platform# ???
SMTWTFS
Malda Town/MLDT 

12 halts. 12 intermediate Stations between Babhabgaon Halt and Malda Town

Show ALL intermediate Stations  Show Old Time-Table

#CodeStation NameX/OArrivesAvgDepartsAvgHaltPFDay#KmSpeedElevZoneAddress
1DHHDinhata (2)  -06:26 06:30-11-322.44839mNFRDist - Coochbehar, West Bengal
2DCHDinhatta College Halt (1)  06:30 06:33-06:31 06:34-1m11-320.04038mNFRDinhata, West Bengal
3VTGBhetaguri (1)  06:42 06:44-06:43 06:45-1m11-313.44443mNFRDist : Cooch Behar, West Bengal
4DWTDewan Hat (1)  06:48 06:50-06:49 06:51-1m11-309.75141mNFRdist - Coachbehar, West Bengal
5COBCooch Behar (1)  07:01 07:03-07:05 07:04-4 1m11-299.54646mNFRDist : Cooch Behar, West Bengal
6NCBNew Cooch Behar Junction (5)  07:10+1607:15+225m--1-295.06847mNFRDist : Cooch Behar-736101, West Bengal
7PQZPundibari (1)X  07:25 07:24+3007:26 07:25+311m11-284.82453mNFRDist - Coochbehar, West Bengal
8SJRRSajherpar (2)X  07:36+2707:37+271m--1-280.44554mNFRDist : Cooch Behar, West Bengal
9GDXGhoksadanga (2)  07:44 07:47+2807:46 07:48+302 1m--1-272.84558mNFRDist : Cooch Behar, West Bengal
10GUZGumanihat (2)  07:52 07:55+3307:53 07:56+371m11-267.68960mNFRDist : Cooch Behar, West Bengal
11FLKFalakata (3)X  08:01 08:03+3608:02 08:04+361m--1-257.23667mNFRDist - Alipurduar, West Bengal
12SXXSalbari (2)  08:20 08:19+3508:21 08:20+371m--1-248.26669mNFRDist - jalpaiguri, West Bengal
13KLGRKolai Gram (2)X  08:35 08:26+3608:36 08:27+401m--1-241.54575mNFRDist : Jalpaiguri, West Bengal
14DQGDhupguri (2)  08:42 08:36+3308:43 08:37+351m--1-234.85875mNFRDist - Jalpaiguri, West Bengal
15ATMAltagram (2)X  08:50 08:44+4608:51 08:45+471m--1-228.03185mNFRDist - Jalpaiguri, West Bengal
16BYXABetgara (2)X  09:03 09:02+4209:04 09:03+461m11-219.43689mNFRDIST - Jalpaiguri, West Bengal
17NMXNew Maynaguri (2)  09:11+4509:12+461m--1-214.53886mNFRDist - Jalpaiguri, West Bengal
18NQHNew Domohani (2)X  09:16 09:18+4609:17 09:19+471m11-210.73384mNFRDist - Jalpaiguri, West Bengal
19JPEJalpaiguri Road (2)X  09:34 09:33+3109:35 09:34+261m11-203.01589mNFRdist - Jalpaiguri 735102, West Bengal
20RQJRaninagar Jalpaiguri Junction (3)X  10:03+2410:04+291m--1-195.85291mNFRDIST - Jalpaiguri, West Bengal
21BLKBelakoba (2)  10:12 10:13+3710:13 10:14+391m11-188.14399mNFRDist - jalpaiguri, West Bengal
22ABFCAmbari Falakata (2)X  10:22 10:27+4110:23 10:28+471m--1-178.743105mNFRdist - jalpaiguri 735201, West Bengal
23NJPNew Jalpaiguri Junction (8)X  10:40+2610:50+2710m--1-170.041114mNFRCity-Siliguri . Dist-Jalpaiguri, West Bengal
24RNIRangapani (2)  11:01+5611:02+561m--1-162.659114mNFRSILIGURI Dist - Darjeeling, West Bengal
25NJBNijbari (2)  11:09+5711:10+571m--1-155.861104mNFRFulbari Ghoshpukur Bypass, West Bengal
26CATChattar Hat (2)X  11:17+5811:18+581m--1-148.66891mNFRChattar, West Bengal
27DMZDumdangi (2)X  11:28 11:26+5911:29 11:27+1:031m--1-139.66786mNFRHaftia Rd, West Bengal
28TMHTin Mile Hat (2)X  11:53 11:35+5711:54 11:36+571m--1-130.76174mNFRTin Mile, West Bengal
29MXJMangurjan (2)  12:00 11:42+1:0012:01 11:43+1:001m--1-124.55669mNFRMangurjan, West Bengal
30AUBAluabari Road (2)  12:13 11:55+5812:15 11:57+1:042m--1-113.3680mNFRDist - uttar Dinajpur, West Bengal
31GEORGunjariaX  12:22 12:04+1:0712:23 12:05+1:071m--1-105.35764mNFRNational Highway 31, West Bengal
32GILGaisal (3)X  12:29 12:11+1:0812:30 12:12+1:091m--1-99.67562mNFRNational Highway 31, West Bengal
33PJPPanjipara (3)X  12:38 12:19+1:1212:39 12:20+1:171m--1-90.94955mNFRNational Highway 31, West Bengal
34KNEKishanGanj (3)  12:47 12:30+5712:49 12:32+572m--1-82.712652mNFRKishanganj, Bihar
35HWRHatwar (2)  13:00 12:36+1:2213:01 12:37+1:231m--1-74.32546mNFRNational Highway 31, West Bengal
36KKAKanki (3)  13:07 12:50+1:2113:08 12:51+1:211m--1-68.96547mNFRKanki, West Bengal
37SJKLSurja Kamal (2)X  13:15 12:58+1:2213:16 12:59+1:291m--1-61.26144mNFRNational Highway 31, West Bengal
38DLKDalkhola (3)  13:23 13:06+1:3113:25 13:08+1:462m--1-54.26144mNFRDalkola, West Bengal
39TETATelta (2)  13:33 13:16+1:4713:34 13:17+1:521m--1-46.13440mNFRRupauli, Bihar
40AHLAjharail  13:39 13:22-13:40 13:23-1m--1-43.27537mNFRNational Highway 34, West Bengal
41SUDSudhani (2)  13:47 13:28+2:0213:48 13:29+2:051m--1-37.05138mNFRState Highway 65, Bihar
42SJGMSanjay Gram  14:11 13:33-14:12 13:34-1m--1-33.64234mNFRSanjay Gram, West Bengal
43BOEBarsoi Junction (3)X  14:19 13:46+4614:21 13:48+462m--1-25.14337mNFRdist- katihar, Bihar
44MFAMukuria Junction (2)  14:26 13:54+1:3014:27 13:55+1:301m--1-20.94832mNFRMukuria, Bihar
45BWPBBhawanipur Bihar (2)  14:32 14:00-14:33 14:01-1m21-16.85236mNFRBhawanipur, Bihar
46AZRAzamnagar Road (3)  14:38 14:06+1:5614:39 14:07+1:561m--1-12.57234mNFRAzamnagar, Bihar
47KMPHKamalpur Halt (2)  14:57 14:11-14:58 14:12-1m--1-7.74332mNFRKamalpur, Bihar
48KWEKhurial (2)  15:01 14:16+1:5415:02 14:17+2:041m--1-4.87233mNFRKhurial, Bihar
49BAHNBabhabgaon Halt (2)»  15:06 14:21-15:07 14:22-1m--10.01631mNFRBabhabgaon, West Bengal
50KDPRKumedpur Junction (5)XO  15:20 14:32+2:0015:22 14:34+2:132m--12.6933mNFRDist. - Malda, West Bengal
51HCRHarischandrapur (2)  15:28 15:18+2:1715:29 15:19+2:211m--19.44231mNFRHarischandrapur, West Bengal
52MQGMilangarh (2)  15:35 15:26-15:36 15:27-1m--114.24229mNFRMilangarh, West Bengal
53BKRDBhaluka Road F (2)X  15:42 15:32+2:0515:43 15:33+2:061m--117.77530mNFRBhaluka, West Bengal
54MFZMalahar (2)X  15:48 15:38-15:49 15:39-1m--124.06031mNFRNational Highway 81, West Bengal
55SMSamsi (2)X  15:55 15:45+2:0815:57 15:47+2:082m--130.04932mNFRdist - Malda, West Bengal
56SRPUSripur Halt (2)  16:02 15:52-16:03 15:53-1m--134.07227mNFRSripur, West Bengal
57KMRJKumarganj (2)  16:07 15:57+2:1116:08 15:58+2:111m--138.95728mNFRNational Highway 34, West Bengal
58MBCMahananda Bridge (2)X  16:12 16:02-16:13 16:03-1m--142.62428mNFRMahananda, West Bengal
59EKIEklakhi Junction (4)  16:17 16:10+1:5916:18 16:11+2:011m--145.42833mNFRDistt. - Malda, West Bengal
60ADFAdina (2)  16:35 16:25+2:1216:36 16:26+2:121m--151.92533mNFRNational Highway 34, West Bengal
61OMLFOld Malda Junction (3)  16:53 16:43+2:0516:54 16:44+1:551m--159.1831mNFRDist - Malda, West Bengal
62MLDTMalda Town (5)•  17:25+1:10---164.8-30mERDist - Malda, West Bengal
Scroll to Top
Scroll to Bottom